Stations météo

réclame
Mon MeteoGroup
Straubing, Allemagne (10788): Température de l'air & dewpoint: 05.12.2019 05:00:00 - 11.12.2019 05:00:00 (CET)Straubing, Allemagne (10788): Température de l'air 5cm & Température de l'air -5cm: 05.12.2019 05:00:00 - 11.12.2019 05:00:00 (CET)Straubing, Allemagne (10788): Température de l'air -20cm & Température de l'air -100cm: 05.12.2019 05:00:00 - 11.12.2019 05:00:00 (CET)Straubing, Allemagne (10788): Vitesse du vent & gusts: 05.12.2019 05:00:00 - 11.12.2019 05:00:00 (CET)Straubing, Allemagne (10788): Direction du vent: 05.12.2019 05:00:00 - 11.12.2019 05:00:00 (CET)Straubing, Allemagne (10788): reduced air pressure: 05.12.2019 05:00:00 - 11.12.2019 05:00:00 (CET)Straubing, Allemagne (10788): visibility: 05.12.2019 05:00:00 - 11.12.2019 05:00:00 (CET)Straubing, Allemagne (10788): Ensoleillement: 05.12.2019 05:00:00 - 11.12.2019 05:00:00 (CET)Straubing, Allemagne (10788): Quantités de précipitations: 05.12.2019 05:00:00 - 11.12.2019 05:00:00 (CET)
Date & Time tt [°C] td [°C] tt 5cm [°C] tt -5cm [°C] tt -20cm [°C] tt -100cm [°C] ff [km/h] ff [knt] fx [km/h] fx [knt] dd ppp [hPa] vv [km] sd [min] rr [mm]
11.12.2019 05:00:00 -2,4 -2,8 - - - - 4 2 8 5 E 1022,2 12 0 -
11.12.2019 04:00:00 -2,4 -3,0 -5,8 1,0 3,4 7,7 8 4 16 8 ESE 1023,0 13 0 0,0
11.12.2019 03:00:00 -2,3 -3,1 -4,0 1,2 3,5 7,7 12 7 16 9 ESE 1024,2 17 0 0,0
11.12.2019 02:00:00 -2,0 -2,4 -3,6 1,3 3,6 7,7 14 8 17 9 SE 1024,9 14 0 0,0
11.12.2019 01:00:00 -2,1 -2,2 -4,0 1,4 3,7 7,7 13 7 17 9 ESE 1025,7 11 0 0,0
11.12.2019 00:00:00 -2,1 -2,4 -4,8 1,5 3,8 7,7 10 5 13 7 ESE 1026,9 14 0 0,0
10.12.2019 23:00:00 -1,3 -1,4 -4,6 1,7 3,9 7,7 5 3 13 7 E 1027,0 13 0 0,0
10.12.2019 22:00:00 -1,4 -2,0 -3,1 1,8 4,0 7,7 12 6 14 7 SSW 1027,3 16 0 0,0
10.12.2019 21:00:00 -0,2 -1,1 -2,3 1,9 4,1 7,7 11 6 14 8 SSW 1027,8 19 0 0,0
10.12.2019 20:00:00 0,5 -0,8 -1,5 2,1 4,2 7,7 10 5 14 7 SW 1028,0 19 0 0,0
10.12.2019 19:00:00 0,2 -0,6 -1,7 2,6 4,3 7,7 11 6 11 6 S 1028,4 15 0 0,0
10.12.2019 18:00:00 2,3 0,9 1,0 3,2 4,3 7,7 6 4 10 5 S 1028,1 21 0 0,0
10.12.2019 17:00:00 3,1 0,8 2,2 3,6 4,3 7,7 7 4 12 7 W 1028,3 24 0 0,0
10.12.2019 16:00:00 3,6 1,0 3,0 4,0 4,3 7,7 6 4 19 10 WSW 1028,5 27 0 0,0
10.12.2019 15:00:00 3,8 0,8 3,6 4,1 4,2 7,7 13 7 23 12 W 1028,3 25 0 0,0
10.12.2019 14:00:00 3,8 0,9 3,9 4,2 4,2 7,7 11 6 21 12 W 1028,3 28 0 0,0
10.12.2019 13:00:00 3,6 1,0 3,9 4,0 4,1 7,7 13 7 23 12 W 1028,2 30 0 0,0
10.12.2019 12:00:00 3,2 0,8 3,5 3,4 4,1 7,7 13 7 25 14 W 1028,0 25 0 0,0
10.12.2019 11:00:00 2,9 0,8 2,8 3,1 4,1 7,7 15 8 24 13 W 1028,0 23 0 0,0
10.12.2019 10:00:00 2,7 0,6 2,7 2,7 4,2 7,7 13 7 24 13 W 1027,2 29 0 0,0
10.12.2019 09:00:00 1,9 0,2 1,3 2,3 4,4 7,7 13 7 22 12 W 1026,3 31 0 0,0
10.12.2019 08:00:00 1,8 0,3 0,7 2,4 4,5 7,7 11 6 17 9 W 1024,8 33 0 0,0
10.12.2019 07:00:00 2,2 0,1 0,0 2,8 4,6 7,7 10 5 24 13 NW 1023,6 39 0 0,0
10.12.2019 06:00:00 3,2 1,1 1,0 3,4 4,6 7,7 10 5 28 15 NW 1021,9 37 0 0,0
10.12.2019 05:00:00 3,9 1,8 2,6 3,8 4,6 7,7 9 5 31 17 WNW 1020,2 45 0 0,0
10.12.2019 04:00:00 4,5 2,0 3,1 4,1 4,6 7,7 16 9 39 21 NW 1018,7 55 0 0,2
10.12.2019 03:00:00 4,5 3,3 3,7 4,2 4,6 7,7 18 10 33 18 W 1017,1 6 0 0,4
10.12.2019 02:00:00 4,9 4,1 4,2 4,2 4,6 7,6 13 7 25 13 W 1015,8 26 0 0,1
10.12.2019 01:00:00 5,0 4,1 4,2 4,2 4,6 7,6 13 7 19 11 W 1014,4 24 0 0,0
10.12.2019 00:00:00 4,9 4,3 4,3 4,2 4,6 7,6 10 5 22 12 W 1013,3 41 0 0,1
09.12.2019 23:00:00 5,1 4,4 4,4 4,1 4,7 7,6 13 7 27 15 W 1011,7 12 0 0,0
09.12.2019 22:00:00 5,1 4,1 4,2 4,0 4,7 7,6 13 7 23 12 W 1010,7 67 0 0,6
09.12.2019 21:00:00 4,9 3,4 3,8 3,8 4,8 7,6 5 3 16 8 W 1009,8 59 0 0,0
09.12.2019 20:00:00 5,5 3,1 3,9 3,7 4,8 7,6 10 6 16 9 WSW 1008,4 65 0 0,0
09.12.2019 19:00:00 6,0 3,4 4,0 4,1 4,9 7,6 11 6 19 11 WSW 1007,5 75 0 0,0
09.12.2019 18:00:00 5,4 3,7 2,5 4,5 4,9 7,6 5 3 37 20 W 1006,9 57 0 0,4
09.12.2019 17:00:00 6,8 2,0 5,1 4,9 4,9 7,6 9 5 18 10 SW 1005,9 59 0 0,0
09.12.2019 16:00:00 7,5 2,5 4,4 5,7 4,8 7,6 8 5 24 13 WSW 1005,4 66 0 0,0
09.12.2019 15:00:00 9,0 2,5 8,6 6,0 4,6 7,6 12 6 23 12 WSW 1005,1 71 8 0,0
09.12.2019 14:00:00 8,9 4,2 9,6 5,9 4,5 7,6 10 5 13 7 SSW 1005,4 54 10 0,0
09.12.2019 13:00:00 7,7 4,2 7,5 5,5 4,4 7,6 10 5 15 8 SSW 1005,9 55 5 0,0
09.12.2019 12:00:00 7,9 3,8 7,8 5,0 4,3 7,6 9 5 19 10 S 1006,5 56 0 0,0
09.12.2019 11:00:00 7,3 3,5 6,9 4,3 4,3 7,6 11 6 15 8 S 1006,9 62 0 0,0
09.12.2019 10:00:00 5,6 3,3 4,7 3,8 4,3 7,7 10 5 23 13 SSW 1007,4 66 0 0,0
09.12.2019 09:00:00 5,6 3,3 4,5 3,5 4,4 7,7 14 8 19 11 SSW 1007,3 56 0 0,0
09.12.2019 08:00:00 4,0 3,0 3,1 3,3 4,4 7,7 5 3 13 7 SSE 1007,5 50 0 0,0
09.12.2019 07:00:00 5,2 2,7 2,8 3,6 4,5 7,7 9 5 13 7 SW 1007,0 55 0 0,0
09.12.2019 06:00:00 5,3 3,0 3,7 3,9 4,5 7,7 8 4 11 6 WSW 1007,1 64 0 0,0
09.12.2019 05:00:00 5,7 3,6 3,7 4,4 4,4 7,7 5 3 32 18 WSW 1007,2 64 0 0,1
09.12.2019 04:00:00 6,9 3,9 5,1 4,6 4,4 7,7 24 13 41 22 W 1007,3 30 0 0,3
09.12.2019 03:00:00 7,4 4,8 5,8 4,5 4,4 7,7 14 8 34 18 W 1007,5 53 0 0,5
09.12.2019 02:00:00 5,2 4,9 4,8 4,2 4,4 7,7 0 0 12 6 N 1007,1 6 0 0,1
09.12.2019 01:00:00 4,5 4,1 3,8 4,2 4,4 7,7 12 7 16 8 E 1006,6 26 0 0,0
09.12.2019 00:00:00 4,8 4,2 4,3 4,2 4,4 7,7 12 6 15 8 E 1006,9 34 0 0,3
08.12.2019 23:00:00 5,1 3,9 4,4 4,2 4,4 7,7 9 5 16 9 ESE 1007,4 29 0 0,1
08.12.2019 22:00:00 5,1 3,2 4,4 4,2 4,4 7,7 11 6 15 8 ESE 1007,6 48 0 0,0
08.12.2019 21:00:00 5,8 3,0 5,4 4,2 4,4 7,7 11 6 17 9 ESE 1008,4 59 0 0,0
08.12.2019 20:00:00 5,5 3,3 4,9 4,0 4,4 7,7 8 5 14 8 E 1008,9 51 0 0,0
08.12.2019 19:00:00 5,1 3,2 3,6 3,9 4,5 7,7 11 6 18 10 SE 1009,6 56 0 0,0
08.12.2019 18:00:00 5,1 3,3 2,4 4,3 4,5 7,7 7 4 15 8 E 1010,2 72 0 0,0
08.12.2019 17:00:00 4,5 3,0 2,6 5,1 4,4 7,7 14 7 16 8 S 1010,4 75 0 0,0
08.12.2019 16:00:00 6,8 4,5 5,0 6,1 4,3 7,7 9 5 13 7 SSW 1010,6 75 4 0,0
08.12.2019 15:00:00 9,0 4,8 8,3 6,6 4,1 7,7 8 4 19 10 SSW 1011,0 71 6 0,0
08.12.2019 14:00:00 9,1 4,3 9,0 6,8 3,8 7,7 12 7 26 14 WSW 1011,8 75 39 0,0
08.12.2019 13:00:00 9,2 3,9 9,9 6,2 3,6 7,7 16 9 31 17 WSW 1012,9 73 30 0,0
08.12.2019 12:00:00 8,6 4,1 9,3 5,4 3,4 7,7 16 9 23 13 SSW 1014,1 65 43 0,0
08.12.2019 11:00:00 7,4 3,8 7,8 4,3 3,3 7,7 17 9 20 11 S 1015,1 75 60 0,0
08.12.2019 10:00:00 6,0 3,5 6,6 3,1 3,3 7,8 12 7 16 9 SSW 1016,1 62 60 0,0
08.12.2019 09:00:00 4,6 2,6 3,8 2,6 3,3 7,8 13 7 18 10 SSW 1016,5 75 14 0,0
08.12.2019 08:00:00 4,9 2,7 3,0 2,8 3,3 7,8 12 7 18 10 SSW 1016,4 64 0 0,0
08.12.2019 07:00:00 4,7 3,5 3,9 3,1 3,3 7,8 9 5 13 7 SSW 1016,7 58 0 0,0
08.12.2019 06:00:00 5,0 3,4 3,4 3,3 3,2 7,8 13 7 18 10 SSW 1016,9 59 0 0,0
08.12.2019 05:00:00 4,9 3,6 4,3 3,2 3,2 7,8 12 7 19 11 SSW 1017,7 53 0 0,0
08.12.2019 04:00:00 4,7 3,5 4,2 3,2 3,2 7,8 11 6 16 9 SSW 1018,4 43 0 0,0
08.12.2019 03:00:00 5,5 3,6 4,7 3,2 3,1 7,8 8 4 18 10 SW 1019,2 60 0 0,0
08.12.2019 02:00:00 5,8 3,7 5,0 3,1 3,0 7,8 11 6 19 10 SW 1019,2 64 0 0,0
08.12.2019 01:00:00 5,0 3,6 4,4 3,0 3,0 7,8 12 7 18 10 SSW 1019,7 56 0 0,0
08.12.2019 00:00:00 5,8 3,7 4,2 3,1 2,9 7,8 10 6 16 8 SW 1020,1 75 0 0,0
07.12.2019 23:00:00 6,6 4,0 5,5 3,1 2,9 7,8 8 5 18 10 WSW 1019,8 57 0 0,0
07.12.2019 22:00:00 6,1 3,9 4,9 3,0 2,8 7,9 10 6 19 10 WSW 1020,0 62 0 0,0
07.12.2019 21:00:00 6,7 4,4 6,0 3,0 2,7 7,9 14 8 23 12 WSW 1019,8 68 0 0,0
07.12.2019 20:00:00 6,3 4,1 5,4 2,8 2,6 7,9 11 6 17 9 WSW 1019,6 72 0 0,0
07.12.2019 19:00:00 6,5 4,1 5,1 2,9 2,5 7,9 8 5 16 9 WSW 1019,2 70 0 0,0
07.12.2019 18:00:00 7,5 4,3 6,2 3,1 2,3 7,9 9 5 22 12 W 1018,9 75 0 0,0
07.12.2019 17:00:00 7,7 4,4 6,7 2,9 2,1 7,9 14 8 25 14 WSW 1018,2 69 0 0,0
07.12.2019 16:00:00 7,6 4,5 6,8 2,6 2,0 7,9 13 7 27 14 WSW 1017,6 71 2 0,0
07.12.2019 15:00:00 7,9 4,6 7,2 1,6 1,9 7,9 15 8 31 17 W 1017,1 69 0 0,0
07.12.2019 14:00:00 7,8 5,2 7,5 0,4 1,9 7,9 14 8 29 15 WSW 1016,9 75 0 0,0
07.12.2019 13:00:00 7,5 5,0 6,4 0,4 1,9 7,9 15 8 28 15 W 1017,0 49 0 0,0
07.12.2019 12:00:00 3,3 3,3 3,1 0,4 1,9 7,9 2 1 8 4 SE 1017,8 13 1 0,0
07.12.2019 11:00:00 2,9 2,5 3,3 0,4 1,9 7,9 7 4 11 6 N 1017,6 12 0 0,0
07.12.2019 10:00:00 1,6 1,5 0,0 0,4 1,9 8,0 6 3 13 7 SSW 1017,4 10 0 0,0
07.12.2019 09:00:00 0,5 0,5 0,0 0,4 1,9 8,0 9 5 17 9 ESE 1017,5 7 0 0,1
07.12.2019 08:00:00 0,1 0,1 0,0 0,4 1,9 8,0 4 2 14 7 ESE 1017,1 6 0 0,2
07.12.2019 07:00:00 0,0 0,0 -0,1 0,4 1,9 8,0 7 4 15 8 NNE 1016,7 6 0 0,0
07.12.2019 06:00:00 -0,3 -0,3 -0,3 0,4 1,9 8,0 10 5 14 8 E 1016,2 5 0 0,0
07.12.2019 05:00:00 -0,5 -0,5 -0,5 0,4 1,9 8,0 11 6 15 8 ENE 1015,9 5 0 0,0
07.12.2019 04:00:00 -0,9 -0,9 -0,7 0,4 1,9 8,0 11 6 17 9 ESE 1016,0 6 0 0,5
07.12.2019 03:00:00 -1,3 -1,3 -0,8 0,3 1,9 8,0 13 7 24 13 ESE 1016,5 6 0 1,4
07.12.2019 02:00:00 -2,0 -2,0 -1,0 0,3 1,9 8,0 14 8 19 10 ESE 1017,2 3,2 0 0,1
07.12.2019 01:00:00 -2,5 -2,5 -2,4 0,3 1,9 8,0 14 8 19 11 ESE 1018,0 0,5 0 0,0
07.12.2019 00:00:00 -2,5 -2,5 -2,4 0,3 1,9 8,0 16 8 22 12 SE 1018,4 0,4 0 0,0
06.12.2019 23:00:00 -2,3 -2,3 -2,2 0,3 1,9 8,1 12 7 21 11 SE 1018,7 0,4 0 0,0
06.12.2019 22:00:00 -2,2 -2,2 -2,1 0,3 1,9 8,1 14 7 20 11 ESE 1019,1 0,4 0 0,0
06.12.2019 21:00:00 -2,2 -2,2 -2,1 0,3 1,9 8,1 14 7 20 11 ESE 1019,3 0,3 0 0,0
06.12.2019 20:00:00 -2,2 -2,2 -2,1 0,3 1,9 8,1 16 9 22 12 ESE 1019,7 0,3 0 0,0
06.12.2019 19:00:00 -2,0 -2,0 -1,8 0,3 1,9 8,1 14 8 22 12 ESE 1019,8 1,2 0 0,0
06.12.2019 18:00:00 -1,9 -2,0 -1,7 0,3 1,9 8,1 14 8 20 11 ESE 1020,1 4,0 0 0,0
06.12.2019 17:00:00 -1,3 -1,9 -1,2 0,3 1,9 8,1 13 7 18 10 ESE 1020,2 7 0 0,0
06.12.2019 16:00:00 -0,9 -1,8 -0,8 0,3 1,9 8,1 11 6 16 9 SE 1020,7 9 0 0,0
06.12.2019 15:00:00 -0,5 -1,9 -0,1 0,2 1,9 8,1 10 5 16 8 SE 1020,9 11 0 0,0
06.12.2019 14:00:00 -0,6 -1,9 0,0 0,2 1,9 8,1 12 6 16 8 ESE 1021,6 10 0 0,0
06.12.2019 13:00:00 -0,6 -1,8 0,1 0,2 1,9 8,1 10 5 17 9 SE 1022,3 9 0 0,0
06.12.2019 12:00:00 -0,9 -1,8 -0,2 0,2 1,9 8,2 11 6 16 9 SE 1023,1 9 0 0,0
06.12.2019 11:00:00 -1,6 -2,6 -1,0 0,2 1,9 8,2 10 5 18 10 S 1024,1 10 0 0,0
06.12.2019 10:00:00 -1,4 -1,9 -1,3 0,2 1,9 8,2 11 6 17 9 SE 1024,1 7 0 0,0
06.12.2019 09:00:00 -1,8 -2,0 -1,8 0,2 1,9 8,2 11 6 18 10 ESE 1024,4 5 0 0,0
06.12.2019 08:00:00 -1,8 -1,8 -1,7 0,2 1,9 8,2 9 5 17 9 SSE 1024,1 3,5 0 0,0
06.12.2019 07:00:00 -1,7 -1,7 -1,6 0,2 1,9 8,2 9 5 14 8 SE 1024,1 1,9 0 0,0
06.12.2019 06:00:00 -1,9 -1,9 -1,8 0,2 1,9 8,2 8 4 13 7 S 1024,1 2,6 0 0,0
06.12.2019 05:00:00 -1,9 -2,0 -1,8 0,2 1,9 8,2 6 3 12 6 SE 1024,3 2,9 0 0,0
06.12.2019 04:00:00 -1,9 -1,9 -1,8 0,2 1,9 8,2 6 3 12 6 SSE 1024,4 1,4 0 0,0
06.12.2019 03:00:00 -1,8 -1,8 -1,7 0,2 2,0 8,2 9 5 13 7 SE 1024,4 1,2 0 0,0
06.12.2019 02:00:00 -1,8 -1,8 -1,8 0,2 2,0 8,2 8 4 12 7 SE 1024,8 2,3 0 0,0
06.12.2019 01:00:00 -1,8 -2,0 -1,7 0,2 2,0 8,3 9 5 17 9 SE 1025,1 2,5 0 0,0
06.12.2019 00:00:00 -1,8 -1,8 -1,7 0,2 2,0 8,3 10 5 18 10 SE 1025,1 1,6 0 0,0
05.12.2019 23:00:00 -1,8 -1,9 -1,8 0,2 2,0 8,3 9 5 14 8 SE 1025,6 2,1 0 0,0
05.12.2019 22:00:00 -1,8 -2,0 -1,8 0,2 2,0 8,3 7 4 12 7 SE 1025,9 2,8 0 0,0
05.12.2019 21:00:00 -1,9 -2,2 -1,8 0,2 2,0 8,3 4 2 11 6 E 1026,3 3,1 0 0,0
05.12.2019 20:00:00 -1,7 -2,2 -1,8 0,2 2,0 8,3 6 3 13 7 SSW 1026,3 3,1 0 0,0
05.12.2019 19:00:00 -1,7 -2,2 -1,7 0,2 2,0 8,3 9 5 14 8 SSE 1025,5 3,6 0 0,0
05.12.2019 18:00:00 -1,5 -2,2 -1,7 0,1 2,0 8,3 6 4 11 6 S 1025,8 4,5 0 0,0
05.12.2019 17:00:00 -1,4 -2,1 -1,5 0,1 2,0 8,3 6 4 9 5 ESE 1025,6 4,5 0 0,0
05.12.2019 16:00:00 -1,2 -2,2 -1,3 0,1 2,0 8,3 5 3 13 7 ESE 1025,2 6 0 0,0
05.12.2019 15:00:00 -1,1 -1,9 -1,1 0,1 2,0 8,3 7 4 13 7 SE 1024,9 6 0 0,0
05.12.2019 14:00:00 -1,0 -1,8 -0,9 0,1 2,1 8,3 10 5 14 8 SE 1025,2 4,2 0 0,0
05.12.2019 13:00:00 -1,1 -1,8 -1,0 0,1 2,1 8,4 11 6 15 8 ESE 1025,5 4,3 0 0,0
05.12.2019 12:00:00 -1,4 -2,0 -1,2 0,0 2,1 8,4 9 5 19 11 SSE 1026,0 4,1 0 0,0
05.12.2019 11:00:00 -1,5 -2,0 -1,4 0,0 2,1 8,4 14 8 21 12 ESE 1026,1 3,6 0 0,0
05.12.2019 10:00:00 -1,7 -2,2 -1,7 0,0 2,2 8,4 16 9 21 11 ESE 1025,9 3,8 0 0,0
05.12.2019 09:00:00 -1,8 -2,4 -1,9 0,0 2,2 8,4 13 7 16 9 ESE 1025,8 3,6 0 0,0
05.12.2019 08:00:00 -2,1 -2,5 -2,2 -0,1 2,3 8,4 10 5 20 11 SE 1025,5 4,2 0 0,0
05.12.2019 07:00:00 -3,2 -3,5 -3,5 0,0 2,3 8,4 9 5 13 7 E 1025,4 4,1 0 0,0
05.12.2019 06:00:00 -4,5 -4,7 -6,6 0,1 2,4 8,4 9 5 10 6 E 1024,9 5 0 0,0
05.12.2019 05:00:00 -4,4 -4,4 -8,1 0,2 2,4 8,4 4 2 5 3 E 1024,8 6 0 0,0

tt = Température de l'air
td = dewpoint
tt 5cm = Température de l'air 5cm
tt -5cm = Température de l'air -5cm
tt -20cm = Température de l'air -20cm
tt -100cm = Température de l'air -100cm
ff = Vitesse du vent
fx = gusts
dd = Direction du vent
ppp = reduced air pressure
vv = visibility
sd = Ensoleillement
rr = Quantités de précipitations

stations d'obs. à proximité